Time,TemperatureF,DewpointF,PressureIn,WindDirection,WindDirectionDegrees,WindSpeedMPH,WindSpeedGustMPH,Humidity,HourlyPrecipIn,Conditions,Clouds,dailyrainin,SolarRadiationWatts/m^2,SoftwareType,DateUTC
2013-05-02 00:02:00,63.0,62.0,-100.00,SW,215,0.0,0.0,95,0.00,,,-99.99,0.000000,,2013-05-02 05:02:00,
2013-05-02 00:12:00,63.0,62.0,-100.00,SW,215,0.0,0.0,95,0.00,,,-99.99,0.000000,,2013-05-02 05:12:00,
2013-05-02 00:42:00,61.0,60.0,-100.00,SE,125,0.0,2.0,98,0.00,,,-99.99,0.000000,,2013-05-02 05:42:00,
2013-05-02 00:52:00,61.0,60.0,-100.00,SE,125,0.0,2.0,98,0.00,,,-99.99,0.000000,,2013-05-02 05:52:00,
2013-05-02 01:01:00,61.0,60.0,-100.00,SE,125,0.0,2.0,98,0.00,,,-99.99,0.000000,,2013-05-02 06:01:00,
2013-05-02 01:12:00,61.0,60.0,-100.00,SE,125,0.0,2.0,98,0.00,,,-99.99,0.000000,,2013-05-02 06:12:00,
2013-05-02 01:42:00,59.0,59.0,-100.00,South,186,0.0,2.0,99,0.00,,,-99.99,0.000000,,2013-05-02 06:42:00,
2013-05-02 01:52:00,59.0,59.0,-100.00,South,186,0.0,2.0,99,0.00,,,-99.99,0.000000,,2013-05-02 06:52:00,
2013-05-02 02:02:00,59.0,59.0,-100.00,South,186,0.0,2.0,99,0.00,,,-99.99,0.000000,,2013-05-02 07:02:00,
2013-05-02 02:11:00,59.0,59.0,-100.00,South,186,0.0,2.0,99,0.00,,,-99.99,0.000000,,2013-05-02 07:11:00,
2013-05-02 02:42:00,58.0,58.0,-100.00,WSW,250,1.0,3.0,100,0.00,,,-99.99,0.000000,,2013-05-02 07:42:00,
2013-05-02 02:52:00,58.0,58.0,-100.00,WSW,250,1.0,3.0,100,0.00,,,-99.99,0.000000,,2013-05-02 07:52:00,
2013-05-02 03:02:00,58.0,58.0,-100.00,WSW,250,1.0,3.0,100,0.00,,,-99.99,0.000000,,2013-05-02 08:02:00,
2013-05-02 03:11:00,58.0,58.0,-100.00,WSW,250,1.0,3.0,100,0.00,,,-99.99,0.000000,,2013-05-02 08:11:00,
2013-05-02 03:42:00,57.0,57.0,-100.00,NE,55,2.0,3.0,100,0.00,,,-99.99,0.000000,,2013-05-02 08:42:00,
2013-05-02 03:52:00,57.0,57.0,-100.00,NE,55,2.0,3.0,100,0.00,,,-99.99,0.000000,,2013-05-02 08:52:00,
2013-05-02 04:02:00,57.0,57.0,-100.00,NE,55,2.0,3.0,100,0.00,,,-99.99,0.000000,,2013-05-02 09:02:00,
2013-05-02 04:12:00,57.0,57.0,-100.00,NE,55,2.0,3.0,100,0.00,,,-99.99,0.000000,,2013-05-02 09:12:00,
2013-05-02 04:42:00,57.0,57.0,-100.00,ENE,62,1.0,4.0,100,0.00,,,-99.99,0.000000,,2013-05-02 09:42:00,
2013-05-02 04:52:00,57.0,57.0,-100.00,ENE,62,1.0,4.0,100,0.00,,,-99.99,0.000000,,2013-05-02 09:52:00,
2013-05-02 05:02:00,57.0,57.0,-100.00,ENE,62,1.0,4.0,100,0.00,,,-99.99,0.000000,,2013-05-02 10:02:00,
2013-05-02 05:12:00,57.0,57.0,-100.00,ENE,62,1.0,4.0,100,0.00,,,-99.99,0.000000,,2013-05-02 10:12:00,
2013-05-02 05:42:00,57.0,57.0,-100.00,West,275,0.0,2.0,100,0.00,,,-99.99,0.000000,,2013-05-02 10:42:00,
2013-05-02 05:53:00,57.0,57.0,-100.00,West,275,0.0,2.0,100,0.00,,,-99.99,0.000000,,2013-05-02 10:53:00,
2013-05-02 06:02:00,57.0,57.0,-100.00,West,275,0.0,2.0,100,0.00,,,-99.99,0.000000,,2013-05-02 11:02:00,
2013-05-02 06:12:00,57.0,57.0,-100.00,West,275,0.0,2.0,100,0.00,,,-99.99,0.000000,,2013-05-02 11:12:00,
2013-05-02 06:42:00,56.0,56.0,-100.00,SSW,195,0.0,2.0,100,0.00,,,-99.99,1.000000,,2013-05-02 11:42:00,
2013-05-02 06:52:00,56.0,56.0,-100.00,SSW,195,0.0,2.0,100,0.00,,,-99.99,1.000000,,2013-05-02 11:52:00,
2013-05-02 07:01:00,56.0,56.0,-100.00,SSW,195,0.0,2.0,100,0.00,,,-99.99,1.000000,,2013-05-02 12:01:00,
2013-05-02 07:11:00,56.0,56.0,-100.00,SSW,195,0.0,2.0,100,0.00,,,-99.99,1.000000,,2013-05-02 12:11:00,
2013-05-02 07:42:00,58.0,58.0,-100.00,WSW,247,1.0,2.0,100,0.00,,,-99.99,37.000000,,2013-05-02 12:42:00,
2013-05-02 07:52:00,58.0,58.0,-100.00,WSW,247,1.0,2.0,100,0.00,,,-99.99,37.000000,,2013-05-02 12:52:00,
2013-05-02 08:01:00,58.0,58.0,-100.00,WSW,247,1.0,2.0,100,0.00,,,-99.99,37.000000,,2013-05-02 13:01:00,
2013-05-02 08:11:00,58.0,58.0,-100.00,WSW,247,1.0,2.0,100,0.00,,,-99.99,37.000000,,2013-05-02 13:11:00,
2013-05-02 08:42:00,63.0,59.0,-100.00,East,90,2.0,5.0,88,0.00,,,-99.99,132.000000,,2013-05-02 13:42:00,
2013-05-02 08:52:00,63.0,59.0,-100.00,East,90,2.0,5.0,88,0.00,,,-99.99,132.000000,,2013-05-02 13:52:00,
2013-05-02 09:02:00,63.0,59.0,-100.00,East,90,2.0,5.0,88,0.00,,,-99.99,132.000000,,2013-05-02 14:02:00,
2013-05-02 09:11:00,63.0,59.0,-100.00,East,90,2.0,5.0,88,0.00,,,-99.99,132.000000,,2013-05-02 14:11:00,
2013-05-02 09:43:00,69.0,57.0,-100.00,SSE,147,3.0,7.0,65,0.00,,,-99.99,305.000000,,2013-05-02 14:43:00,
2013-05-02 09:52:00,69.0,57.0,-100.00,SSE,147,3.0,7.0,65,0.00,,,-99.99,305.000000,,2013-05-02 14:52:00,
2013-05-02 10:02:00,69.0,57.0,-100.00,SSE,147,3.0,7.0,65,0.00,,,-99.99,305.000000,,2013-05-02 15:02:00,
2013-05-02 10:12:00,69.0,57.0,-100.00,SSE,147,3.0,7.0,65,0.00,,,-99.99,305.000000,,2013-05-02 15:12:00,
2013-05-02 10:43:00,74.0,56.0,-100.00,South,184,2.0,11.0,54,0.00,,,-99.99,531.000000,,2013-05-02 15:43:00,
2013-05-02 11:03:00,74.0,56.0,-100.00,South,184,2.0,11.0,54,0.00,,,-99.99,531.000000,,2013-05-02 16:03:00,
2013-05-02 11:13:00,74.0,56.0,-100.00,South,184,2.0,11.0,54,0.00,,,-99.99,531.000000,,2013-05-02 16:13:00,
2013-05-02 11:32:00,74.0,56.0,-100.00,ESE,105,4.0,10.0,54,0.00,,,-99.99,655.000000,,2013-05-02 16:32:00,
2013-05-02 11:43:00,74.0,56.0,-100.00,ESE,105,4.0,10.0,54,0.00,,,-99.99,655.000000,,2013-05-02 16:43:00,
2013-05-02 11:52:00,74.0,56.0,-100.00,ESE,105,4.0,10.0,54,0.00,,,-99.99,655.000000,,2013-05-02 16:52:00,
2013-05-02 12:02:00,74.0,56.0,-100.00,ESE,105,4.0,10.0,54,0.00,,,-99.99,655.000000,,2013-05-02 17:02:00,
2013-05-02 12:12:00,74.0,56.0,-100.00,ESE,105,4.0,10.0,54,0.00,,,-99.99,655.000000,,2013-05-02 17:12:00,
2013-05-02 12:32:00,75.0,56.0,-100.00,SW,222,3.0,9.0,52,0.00,,,-99.99,530.000000,,2013-05-02 17:32:00,
2013-05-02 12:42:00,75.0,56.0,-100.00,SW,222,3.0,9.0,52,0.00,,,-99.99,530.000000,,2013-05-02 17:42:00,
2013-05-02 12:52:00,75.0,56.0,-100.00,SW,222,3.0,9.0,52,0.00,,,-99.99,530.000000,,2013-05-02 17:52:00,
2013-05-02 13:01:00,75.0,56.0,-100.00,SW,222,3.0,9.0,52,0.00,,,-99.99,530.000000,,2013-05-02 18:01:00,
2013-05-02 13:11:00,75.0,56.0,-100.00,SW,222,3.0,9.0,52,0.00,,,-99.99,530.000000,,2013-05-02 18:11:00,
2013-05-02 13:42:00,78.0,57.0,-100.00,ENE,62,5.0,12.0,49,0.00,,,-99.99,569.000000,,2013-05-02 18:42:00,
2013-05-02 13:52:00,78.0,57.0,-100.00,ENE,62,5.0,12.0,49,0.00,,,-99.99,569.000000,,2013-05-02 18:52:00,
2013-05-02 14:01:00,78.0,57.0,-100.00,ENE,62,5.0,12.0,49,0.00,,,-99.99,569.000000,,2013-05-02 19:01:00,
2013-05-02 14:11:00,78.0,57.0,-100.00,ENE,62,5.0,12.0,49,0.00,,,-99.99,569.000000,,2013-05-02 19:11:00,
2013-05-02 14:42:00,78.0,57.0,-100.00,ENE,59,3.0,9.0,48,0.00,,,-99.99,612.000000,,2013-05-02 19:42:00,
2013-05-02 14:52:00,78.0,57.0,-100.00,ENE,59,3.0,9.0,48,0.00,,,-99.99,612.000000,,2013-05-02 19:52:00,
2013-05-02 15:02:00,78.0,57.0,-100.00,ENE,59,3.0,9.0,48,0.00,,,-99.99,612.000000,,2013-05-02 20:02:00,
2013-05-02 15:11:00,78.0,57.0,-100.00,ENE,59,3.0,9.0,48,0.00,,,-99.99,612.000000,,2013-05-02 20:11:00,
2013-05-02 15:42:00,79.0,56.0,-100.00,NW,305,3.0,10.0,46,0.00,,,-99.99,552.000000,,2013-05-02 20:42:00,
2013-05-02 15:52:00,79.0,56.0,-100.00,NW,305,3.0,10.0,46,0.00,,,-99.99,552.000000,,2013-05-02 20:52:00,
2013-05-02 16:01:00,79.0,56.0,-100.00,NW,305,3.0,10.0,46,0.00,,,-99.99,552.000000,,2013-05-02 21:01:00,
2013-05-02 16:11:00,79.0,56.0,-100.00,NW,305,3.0,10.0,46,0.00,,,-99.99,552.000000,,2013-05-02 21:11:00,
2013-05-02 16:42:00,80.0,57.0,-100.00,ENE,77,6.0,12.0,46,0.00,,,-99.99,545.000000,,2013-05-02 21:42:00,
2013-05-02 16:53:00,80.0,57.0,-100.00,ENE,77,6.0,12.0,46,0.00,,,-99.99,545.000000,,2013-05-02 21:53:00,
2013-05-02 17:02:00,80.0,57.0,-100.00,ENE,77,6.0,12.0,46,0.00,,,-99.99,545.000000,,2013-05-02 22:02:00,
2013-05-02 17:12:00,80.0,57.0,-100.00,ENE,77,6.0,12.0,46,0.00,,,-99.99,545.000000,,2013-05-02 22:12:00,
2013-05-02 17:42:00,78.0,57.0,-100.00,East,100,5.0,12.0,48,0.00,,,-99.99,253.000000,,2013-05-02 22:42:00,
2013-05-02 17:53:00,78.0,57.0,-100.00,East,100,5.0,12.0,48,0.00,,,-99.99,253.000000,,2013-05-02 22:53:00,
2013-05-02 18:02:00,78.0,57.0,-100.00,East,100,5.0,12.0,48,0.00,,,-99.99,253.000000,,2013-05-02 23:02:00,
2013-05-02 18:11:00,78.0,57.0,-100.00,East,100,5.0,12.0,48,0.00,,,-99.99,253.000000,,2013-05-02 23:11:00,
2013-05-02 18:32:00,75.0,57.0,-100.00,SE,129,4.0,9.0,53,0.00,,,0.00,144.000000,,2013-05-02 23:32:00,
2013-05-02 18:42:00,75.0,57.0,-100.00,SE,129,4.0,9.0,53,0.00,,,0.00,144.000000,,2013-05-02 23:42:00,
2013-05-02 18:52:00,75.0,57.0,-100.00,SE,129,4.0,9.0,53,0.00,,,0.00,144.000000,,2013-05-02 23:52:00,
2013-05-02 19:01:00,75.0,57.0,-100.00,SE,129,4.0,9.0,53,0.00,,,0.00,144.000000,,2013-05-03 00:01:00,
2013-05-02 19:11:00,75.0,57.0,-100.00,SE,129,4.0,9.0,53,0.00,,,0.00,144.000000,,2013-05-03 00:11:00,
2013-05-02 19:42:00,71.0,59.0,-100.00,SSE,152,3.0,10.0,66,0.00,,,0.00,31.000000,,2013-05-03 00:42:00,
2013-05-02 19:52:00,71.0,59.0,-100.00,SSE,152,3.0,10.0,66,0.00,,,0.00,31.000000,,2013-05-03 00:52:00,
2013-05-02 20:01:00,71.0,59.0,-100.00,SSE,152,3.0,10.0,66,0.00,,,0.00,31.000000,,2013-05-03 01:01:00,
2013-05-02 20:11:00,71.0,59.0,-100.00,SSE,152,3.0,10.0,66,0.00,,,0.00,31.000000,,2013-05-03 01:11:00,
2013-05-02 20:32:00,68.0,60.0,-100.00,NE,37,0.0,7.0,75,0.00,,,0.00,3.000000,,2013-05-03 01:32:00,
2013-05-02 20:42:00,68.0,60.0,-100.00,NE,37,0.0,7.0,75,0.00,,,0.00,3.000000,,2013-05-03 01:42:00,
2013-05-02 20:52:00,68.0,60.0,-100.00,NE,37,0.0,7.0,75,0.00,,,0.00,3.000000,,2013-05-03 01:52:00,
2013-05-02 21:01:00,68.0,60.0,-100.00,NE,37,0.0,7.0,75,0.00,,,0.00,3.000000,,2013-05-03 02:01:00,
2013-05-02 21:11:00,68.0,60.0,-100.00,NE,37,0.0,7.0,75,0.00,,,0.00,3.000000,,2013-05-03 02:11:00,
2013-05-02 21:32:00,66.0,60.0,-100.00,SSE,165,0.0,2.0,82,0.00,,,0.00,0.000000,,2013-05-03 02:32:00,
2013-05-02 21:42:00,66.0,60.0,-100.00,SSE,165,0.0,2.0,82,0.00,,,0.00,0.000000,,2013-05-03 02:42:00,
2013-05-02 21:52:00,66.0,60.0,-100.00,SSE,165,0.0,2.0,82,0.00,,,0.00,0.000000,,2013-05-03 02:52:00,
2013-05-02 22:01:00,66.0,60.0,-100.00,SSE,165,0.0,2.0,82,0.00,,,0.00,0.000000,,2013-05-03 03:01:00,
2013-05-02 22:11:00,66.0,60.0,-100.00,SSE,165,0.0,2.0,82,0.00,,,0.00,0.000000,,2013-05-03 03:11:00,
2013-05-02 22:33:00,64.0,61.0,-100.00,SSW,211,0.0,2.0,90,0.00,,,0.00,0.000000,,2013-05-03 03:33:00,
2013-05-02 22:43:00,64.0,61.0,-100.00,SSW,211,0.0,2.0,90,0.00,,,0.00,0.000000,,2013-05-03 03:43:00,
2013-05-02 22:53:00,64.0,61.0,-100.00,SSW,211,0.0,2.0,90,0.00,,,0.00,0.000000,,2013-05-03 03:53:00,
2013-05-02 23:03:00,64.0,61.0,-100.00,SSW,211,0.0,2.0,90,0.00,,,0.00,0.000000,,2013-05-03 04:03:00,
2013-05-02 23:12:00,64.0,61.0,-100.00,SSW,211,0.0,2.0,90,0.00,,,0.00,0.000000,,2013-05-03 04:12:00,
2013-05-02 23:32:00,63.0,61.0,-100.00,ESE,117,0.0,2.0,93,0.00,,,0.00,0.000000,,2013-05-03 04:32:00,
2013-05-02 23:43:00,63.0,61.0,-100.00,ESE,117,0.0,2.0,93,0.00,,,0.00,0.000000,,2013-05-03 04:43:00,
2013-05-02 23:53:00,63.0,61.0,-100.00,ESE,117,0.0,2.0,93,0.00,,,0.00,0.000000,,2013-05-03 04:53:00,